Wind_Speed
23 19 17 18 25 26 28 29 29 30 28 31 31 28 26 25 26 24 30 32 33 29 25 18 14 8 13 11 9 10 9 6 2 2 4 9 10 15 16 16 16 18 19
23 22 19 17 18 24 27 31 29 29 37 32 28 32 25 26 31 32 30 30 32 27 23 20 15 9 15 12 11 12 10 7 3 4 5 8 10 15 19 19 21 19 21
20 21 19 17 17 25 28 30 30 29 32 36 35 32 32 33 31 35 36 25 34 28 19 23 12 12 14 12 11 10 7 5 4 5 7 9 12 15 19 18 21 22 22
17 19 19 19 20 26 30 29 30 30 29 35 36 34 35 37 33 34 39 38 32 31 23 17 11 12 14 14 10 9 6 4 5 6 7 9 12 18 16 21 24 23 26
19 17 19 22 21 27 29 29 28 32 37 41 42 38 37 41 40 37 39 34 33 33 23 15 15 15 17 13 10 9 7 4 5 8 10 11 15 20 21 23 22 24 25
19 18 18 20 20 26 29 29 30 35 41 45 44 44 41 42 46 43 40 36 35 31 25 21 17 19 17 14 13 10 7 7 10 10 11 13 15 17 20 23 23 24 15
21 21 20 18 18 23 28 32 37 38 41 42 42 45 43 50 46 42 41 43 37 33 26 21 18 17 15 14 13 11 12 13 12 10 11 11 13 17 19 22 22 23 22
23 21 20 16 16 17 34 38 38 39 41 43 44 46 49 48 48 46 46 43 38 29 25 22 20 17 13 13 12 10 10 10 13 10 9 8 10 13 15 17 19 22 21
20 20 18 14 17 26 36 38 38 38 37 39 49 49 50 48 49 49 46 38 41 30 24 21 19 18 13 12 12 11 11 13 12 11 10 11 13 16 17 17 19 20 21
17 20 13 12 31 38 41 39 38 43 42 40 40 45 45 49 48 48 47 45 34 27 21 22 18 18 15 14 12 10 16 14 10 9 13 13 14 14 14 15 18 19 21
19 14 12 28 37 42 39 38 42 38 43 43 47 42 42 47 44 42 42 40 34 28 24 20 20 19 19 19 17 17 13 9 10 12 13 14 15 16 17 16 16 18 18
20 15 31 35 36 38 43 38 41 41 43 45 50 38 39 40 40 42 36 39 33 30 24 22 23 23 22 23 21 16 18 13 14 14 16 17 18 19 20 20 19 19 14
24 37 38 39 39 43 49 44 40 30 42 41 44 43 38 33 42 40 40 38 35 29 26 28 26 25 24 22 21 20 17 17 15 16 18 17 17 18 19 23 21 20 16
45 43 44 44 41 41 41 42 39 32 29 42 40 41 40 37 37 41 40 38 36 35 29 22 22 24 22 18 15 19 18 16 18 18 16 15 17 20 23 25 22 23 20
46 45 44 43 44 41 37 37 44 34 26 32 35 44 44 37 34 39 35 30 26 28 24 21 19 17 15 16 19 16 17 18 19 18 15 18 20 24 25 25 24 23 23
42 41 42 42 42 43 47 47 45 41 31 34 34 41 36 43 44 39 36 34 31 26 24 22 18 16 19 16 14 15 17 19 18 15 17 20 23 24 24 24 26 27 25
45 44 45 44 41 45 45 48 44 37 37 35 39 46 49 47 43 39 35 32 28 24 24 20 19 18 17 14 14 14 16 15 13 16 18 21 22 21 22 24 26 28 25
45 45 46 45 44 42 45 44 40 38 36 37 42 45 44 41 38 35 33 29 25 22 22 22 19 15 15 13 15 15 14 13 15 17 20 20 20 21 23 25 26 27 26
45 45 47 46 45 45 42 39 39 38 37 37 39 41 39 38 36 32 26 23 23 23 20 20 16 14 14 16 14 13 13 15 17 19 18 19 20 21 22 24 25 26 25
46 48 47 43 39 39 40 40 38 36 35 33 31 31 34 29 25 22 22 23 22 21 18 16 15 16 17 14 13 12 14 16 17 16 18 18 19 20 21 23 24 25 25
41 38 40 40 39 40 38 36 34 33 32 30 30 26 27 26 25 24 22 22 20 17 15 16 18 17 15 14 12 14 16 15 15 16 17 18 18 20 20 21 23 24 24
37 37 37 37 37 35 34 33 32 32 31 30 28 30 28 25 24 24 22 20 17 16 17 17 17 15 15 13 12 14 14 15 17 17 17 17 17 18 19 21 23 22 23
37 37 36 35 36 37 33 32 32 32 31 30 29 26 24 23 24 21 20 18 17 18 18 16 16 15 13 12 13 14 15 15 15 16 16 16 17 18 19 20 21 22 23
36 36 36 34 33 33 33 32 31 30 29 28 26 24 23 23 22 20 19 18 19 17 17 16 17 14 12 12 13 14 17 17 14 15 15 15 16 17 18 18 20 20 22
34 34 34 33 32 32 32 30 28 27 27 26 25 24 22 22 21 20 20 17 16 17 16 14 12 12 13 14 14 17 19 20 21 19 14 15 15 15 15 16 19 19 21
32 31 31 30 29 28 29 28 26 25 26 25 24 22 21 20 20 19 17 16 15 13 13 12 11 12 11 14 16 17 19 20 21 20 15 14 14 13 13 15 18 18 20
Wind_Direction
296 295 276 255 244 236 224 217 213 204 201 202 184 186 187 182 185 171 167 160 151 141 129 128 110 106 93 85 77 69 59 39 331 332 315 322 334 337 339 340 338 335 333
290 291 287 275 255 241 229 220 210 204 189 199 186 183 174 168 172 167 143 148 138 130 133 124 113 142 108 93 82 76 67 49 354 337 321 343 331 341 342 345 340 339 333
279 282 284 277 263 239 231 221 209 204 186 179 177 164 159 154 149 154 150 139 134 123 117 104 146 130 105 103 91 84 76 57 12 347 353 341 341 341 346 345 340 338 338
274 271 273 274 259 238 223 218 206 195 173 159 156 153 143 138 139 141 143 138 123 116 107 112 154 122 125 107 98 89 70 33 9 10 5 352 352 351 346 344 342 345 336
271 264 264 270 264 243 220 206 195 172 154 145 138 134 131 136 141 134 133 134 126 115 115 151 134 131 108 110 98 80 54 22 15 24 11 2 2 353 350 343 338 339 343
268 261 255 261 265 235 212 190 166 142 142 140 136 135 135 133 144 141 135 125 120 120 136 132 122 113 110 107 96 87 70 42 41 30 21 8 1 346 344 345 337 344 345
264 255 250 247 254 236 200 146 139 138 136 133 133 136 131 138 141 137 134 129 132 137 144 130 122 120 119 108 93 81 69 61 62 43 29 9 350 347 342 337 335 338 333
257 252 245 237 239 218 141 137 137 139 138 134 131 132 132 136 139 134 136 134 130 139 139 131 124 123 111 104 98 88 74 59 55 44 28 11 1 353 348 333 330 329 334
245 246 235 228 230 172 139 139 136 130 129 133 134 132 129 133 137 139 134 125 130 131 128 122 120 113 112 108 100 93 80 61 39 44 37 24 16 8 359 350 351 341 342
228 228 214 213 146 142 139 138 137 134 130 128 121 122 127 133 141 138 129 123 118 115 111 113 113 112 111 107 96 86 68 49 41 31 27 17 13 6 358 2 355 351 353
205 209 198 148 139 135 132 132 126 128 122 120 113 119 124 131 134 125 127 125 122 120 115 111 108 112 103 97 88 73 72 57 34 36 28 17 15 9 4 3 7 4 349
192 169 130 127 125 123 116 115 114 123 121 117 115 117 119 125 124 124 129 128 127 122 119 115 112 106 102 88 80 80 68 55 46 33 29 17 11 5 359 2 6 3 353
160 125 119 115 115 116 118 115 112 121 117 124 119 121 124 123 122 133 132 128 124 117 116 116 116 104 88 81 77 66 54 48 41 37 26 12 4 2 1 7 7 3 2
116 115 113 111 109 111 113 116 114 110 125 120 126 123 119 121 123 128 126 125 121 115 113 114 108 97 88 77 64 53 48 43 38 32 19 6 10 13 12 10 4 360 4
108 108 107 105 105 103 100 110 110 106 117 124 126 127 130 128 132 131 129 124 122 123 118 106 99 92 86 72 61 53 48 43 37 28 15 16 19 18 14 8 6 6 9
104 106 108 106 104 104 103 92 95 107 113 113 123 125 124 130 134 131 127 122 124 118 104 98 93 90 78 69 63 53 47 41 34 23 20 21 22 17 11 9 9 12 7
105 106 106 105 106 106 105 102 98 103 116 122 125 127 130 133 129 126 125 126 115 102 100 98 88 79 80 72 67 55 49 40 34 31 28 24 21 16 13 11 14 10 8
100 103 104 104 105 108 107 113 122 119 113 106 122 126 127 127 126 125 123 112 95 93 93 90 87 84 79 77 65 55 47 40 36 34 31 25 20 15 12 15 14 9 4
99 100 101 103 105 111 118 117 115 115 113 113 116 119 126 127 125 122 107 102 101 92 91 89 90 90 82 70 61 53 46 40 37 35 30 25 21 17 14 13 10 11 6
93 101 105 110 114 112 111 113 115 116 118 119 119 123 122 116 107 101 96 95 95 92 94 99 94 81 72 68 60 51 46 39 36 30 28 25 22 18 14 11 11 8 8
101 106 110 109 109 111 115 116 117 116 116 116 116 121 122 116 109 103 101 94 90 99 102 94 83 78 72 65 57 51 47 40 35 31 27 22 20 18 13 12 13 8 8
105 106 105 106 109 110 112 114 116 115 112 113 115 116 110 108 112 107 100 100 103 97 89 86 83 78 72 64 54 51 46 41 34 27 25 19 19 18 15 12 11 7 6
105 106 106 107 109 110 109 108 108 111 114 117 119 115 113 112 108 110 112 106 99 91 84 82 81 73 67 62 55 48 41 35 32 24 23 18 17 17 15 11 8 4 5
103 105 107 109 110 110 111 113 114 118 120 119 118 116 114 115 118 119 117 109 95 90 83 76 73 71 66 62 54 47 44 41 28 26 24 19 16 15 13 9 6 4 4
105 106 109 111 112 114 115 116 119 120 120 120 119 117 120 125 126 120 108 107 104 91 81 76 74 75 69 64 58 48 41 35 32 31 24 21 15 12 9 5 3 3 5
105 108 111 114 115 117 118 120 121 124 123 123 124 127 127 122 116 113 113 105 97 97 88 82 75 72 70 57 49 42 37 33 30 27 29 19 14 9 7 4 4 4 4
Height
681 680 678 677 678 681 683 684 689 693 694 699 701 714 722 728 734 744 748 752 759 767 770 778 784 791 789 791 795 796 798 801 801 801 801 799 795 791 785 779 776 771 766
677 676 675 672 673 676 678 679 682 687 696 697 705 710 721 725 733 742 750 754 760 769 778 778 786 798 789 795 796 797 800 803 805 802 800 796 794 791 786 781 775 770 764
675 672 671 669 668 670 672 675 678 682 686 694 701 708 717 722 734 741 749 765 759 770 786 777 799 797 791 796 797 799 802 803 805 803 798 796 793 790 783 779 775 768 764
669 667 666 665 662 663 665 670 674 679 681 686 695 709 715 723 736 743 749 760 765 769 783 792 804 797 795 795 800 800 803 806 806 802 798 797 794 790 786 782 775 767 764
660 659 660 661 658 659 662 665 672 676 679 687 695 707 716 722 735 744 753 763 765 768 783 803 800 802 792 800 801 803 805 809 805 799 801 798 795 793 788 782 777 770 761
652 651 653 655 653 653 655 661 669 675 679 685 694 703 717 726 734 742 749 762 769 780 792 802 802 798 798 802 799 802 807 809 806 803 802 801 798 797 790 785 778 772 759
646 645 646 646 646 645 649 658 667 677 681 688 698 708 721 730 736 743 755 759 776 783 800 797 799 800 802 803 802 807 808 806 803 804 802 804 800 795 790 787 779 776 769
636 635 638 638 639 642 647 657 668 678 684 691 701 712 721 733 738 749 757 765 774 791 798 801 802 805 805 805 807 810 811 810 802 805 808 805 800 795 791 789 781 775 767
626 628 629 632 632 635 648 657 668 678 688 696 701 712 721 736 745 754 762 774 778 794 800 802 804 804 807 808 810 813 811 807 806 807 806 802 799 795 794 787 780 773 765
622 622 622 624 628 636 645 658 668 677 689 702 709 717 728 739 755 759 761 767 786 796 803 804 807 809 810 812 813 813 809 810 810 808 803 802 799 794 794 788 782 777 770
613 618 619 623 628 637 650 662 669 688 690 704 708 730 741 749 761 763 767 775 787 797 803 810 811 812 813 814 813 812 811 814 812 808 805 804 799 797 794 788 781 776 773
607 614 618 626 636 646 655 674 681 694 700 710 717 739 751 758 764 765 782 784 792 799 807 812 815 816 817 814 816 817 815 815 811 811 806 806 801 797 795 789 782 779 780
603 615 623 633 643 656 662 676 692 702 705 717 725 738 753 767 766 783 788 792 798 805 809 812 817 819 818 820 820 821 819 816 815 811 811 810 807 801 796 789 784 781 779
604 619 629 639 655 670 679 685 693 703 720 714 730 738 748 768 779 787 793 799 805 807 812 817 820 820 821 822 825 824 823 822 819 816 817 816 809 801 796 790 787 783 775
613 626 639 649 660 677 691 697 702 716 728 730 735 737 750 768 782 787 794 801 807 811 815 820 822 824 827 828 827 830 826 824 823 822 823 816 808 802 799 798 794 786 779
625 637 649 660 672 684 694 709 721 729 743 745 756 755 767 773 782 792 800 805 811 817 818 822 827 830 827 830 832 833 830 828 827 829 825 817 810 807 804 802 798 790 787
638 650 662 672 684 691 703 709 729 754 759 767 768 771 777 784 791 798 805 811 817 820 822 826 830 832 831 835 834 836 833 832 832 829 825 820 815 812 808 806 798 795 790
655 663 670 683 695 706 715 731 744 755 767 777 787 787 791 797 803 808 812 816 822 827 827 827 833 838 837 841 839 840 838 838 835 830 826 824 821 819 815 807 803 800 797
670 678 687 700 710 720 733 744 754 764 772 780 792 799 805 808 811 815 818 823 826 828 834 834 841 843 843 841 843 845 844 842 838 832 831 829 826 822 818 814 810 804 802
688 695 703 714 726 734 743 753 764 773 782 790 799 805 809 814 818 823 825 829 834 835 840 844 846 846 843 846 848 848 845 843 840 841 836 832 829 826 822 819 814 809 806
708 717 723 730 739 747 757 766 774 782 789 797 804 810 815 819 823 828 833 836 840 845 849 848 846 846 848 850 853 848 846 847 846 842 839 836 834 829 828 824 818 815 812
723 730 736 742 751 760 767 775 782 788 794 802 810 816 821 824 830 833 838 844 849 851 851 850 850 852 852 854 854 851 850 849 847 845 841 840 837 833 831 827 822 821 817
735 741 748 757 764 770 777 783 789 797 804 813 817 823 828 833 836 843 848 852 854 853 853 855 855 856 856 857 856 857 854 852 848 848 845 843 841 836 833 831 829 826 822
747 752 758 766 773 780 786 794 801 808 814 820 825 829 834 839 844 848 852 854 853 857 858 859 857 860 861 861 861 859 854 853 852 848 848 846 843 840 837 836 834 831 826
760 765 772 779 785 792 798 804 811 817 821 825 831 837 843 847 849 851 849 855 859 857 859 860 863 864 864 864 862 859 856 855 852 849 850 848 846 845 843 841 838 834 830
773 778 784 791 796 802 806 812 819 826 829 834 839 844 848 850 850 852 856 858 859 863 862 865 868 867 867 863 862 861 859 856 853 852 852 852 850 849 847 845 841 837 833